[[{"header":{"parameterUnit":"m.s-1","parameterCategory":1,"la1":30.2991,"la2":30.254,"lo1":-89.0895,"lo2":-89.0444,"dy":0.0017,"dx":0.0017,"nx":28,"ny":28,"refTime":"2025-07-11T03:00:00:Z","depth":0,"parameterNumber":2,"parameterNumberName":"U-component_of_WINDS"},"data":[0,0,0,0,0,0,0,0,0,0,0,0,0,0,0,0,0,0,0,0,0,0,0,0,0,0,0,0,0,0,0,0,0,0,0,0,0,0,0,0,0,0,0,0,0,0,0,0,0,0,0,0,0,0,0,0,0,0,3.9551,3.9551,0,3.9589,3.959,3.959,3.9521,3.9519,3.9517,3.9515,3.9553,3.9556,3.9559,0,0,0,0,0,0,0,0,0,0,0,0,0,3.9416,3.9419,3.9551,3.9551,3.9552,3.9589,3.959,3.959,3.9522,3.9519,3.9516,3.9514,3.9552,3.9556,3.956,0,0,0,0,0,0,0,0,0,0,0,0,0,3.9467,3.942,3.9551,3.9522,3.952,3.9589,3.959,3.959,3.9522,3.9519,3.9515,3.9512,3.9551,3.9556,3.956,3.9659,0,0,3.9575,3.9577,0,0,0,0,0,0,0,0,3.9464,3.9472,3.9526,3.9524,3.9522,3.9547,3.9556,3.9613,3.9523,3.9522,3.9515,3.9511,3.9554,3.9558,3.9573,3.966,3.9662,3.9575,3.9578,3.958,3.9581,0,0,0,0,0,0,0,3.9461,3.947,3.9566,3.9527,3.9524,3.9507,3.951,3.9567,3.9557,3.9521,3.9517,3.9522,3.9552,3.9569,3.9573,3.9663,3.9575,3.9579,3.9582,3.9584,3.9827,3.9831,0,0,0,0,0,0,3.9461,3.9467,3.9565,3.9567,3.9484,3.9512,3.9516,3.9542,3.9556,3.9554,3.9525,3.9519,3.9562,3.9568,3.9574,3.9686,3.958,3.9585,3.9587,3.9824,3.9828,3.9832,0,0,0,0,0,0,3.9458,3.947,3.9563,3.9516,3.9526,3.9518,3.9549,3.9545,3.9561,3.9558,3.9556,3.9544,3.956,3.9568,3.9637,3.9687,3.9587,3.9591,3.982,3.9825,3.983,3.9913,0,0,0,0,0,0,3.9455,3.947,3.9508,3.9517,3.9529,3.9626,3.9552,3.9548,3.957,3.9562,3.9575,3.9574,3.9557,3.963,3.9642,3.9691,3.9595,3.9815,3.9822,3.9828,3.9906,3.9921,3.9934,0,0,0,0,0,3.945,3.9531,3.951,3.9522,3.9577,3.9629,3.9636,3.9615,3.9574,3.9611,3.9609,3.9574,3.968,3.9638,3.965,3.9702,3.9812,3.982,3.9828,3.99,3.9918,3.9933,0,0,0,0,0,0,3.9528,3.9531,3.9509,3.9595,3.9612,3.9618,3.9664,3.9636,3.9665,3.9657,3.963,3.9633,3.9707,3.9712,3.9665,3.9795,3.9739,3.975,3.9789,3.9806,3.982,3.9815,3.9599,0,0,0,0,0,3.9555,3.9598,3.9599,3.9675,3.9685,3.9673,3.9695,3.9678,3.9694,3.9701,3.9704,3.9722,3.9758,3.9783,3.9817,3.9907,3.9907,3.9949,3.9963,3.9974,3.9983,4.0026,4.0043,3.9859,3.9859,3.9859,0,0,3.9612,3.9619,3.9648,3.969,3.9702,3.9745,3.968,3.973,3.9761,3.9709,3.9773,3.9776,3.9793,3.9872,3.9907,3.9878,4.0034,3.9984,3.9993,3.9996,4.0036,4.0054,4.0069,3.9864,3.9863,3.9862,0,0,3.9736,3.9748,3.981,3.9822,3.9839,3.9831,3.9846,3.9855,3.9854,3.9919,3.9879,3.9916,3.9982,3.9994,4.0009,4.0135,4.0102,4.0147,4.0218,4.0261,4.0275,4.0288,4.0329,4.0344,4.0157,4.0157,4.0157,0,3.9804,3.9868,3.9845,3.9896,3.9914,3.9869,3.993,3.9944,3.9972,3.9985,3.9953,4.0031,4.004,4.0118,4.0149,4.0164,4.0178,4.0144,4.0275,4.0288,4.0299,4.0337,4.0353,4.0162,4.0161,4.0161,4.016,0,3.9948,3.9993,4.0041,4.0067,4.0092,4.0148,4.0132,4.0159,4.0139,4.0134,4.0198,4.0207,4.0239,4.0258,4.024,4.0333,4.0314,4.028,4.0221,4.0322,4.0357,4.0372,4.0169,4.0167,4.0166,4.0165,0,0,4.0122,4.0133,4.0151,4.016,4.0175,4.0209,4.0262,4.0294,4.0315,4.0337,4.0378,4.0433,4.04,4.0417,4.04,4.0438,4.0532,4.0398,4.0397,4.0418,4.063,4.0653,4.0671,4.0511,4.0514,4.0516,4.0627,0,4.0242,4.0332,4.0312,4.04,4.0439,4.0396,4.0442,4.0455,4.0451,4.0483,4.0478,4.0516,4.0471,4.0481,4.0517,4.0513,4.0573,4.0505,4.0547,4.0549,4.054,4.069,4.0715,4.0819,4.0641,4.0644,4.0645,0,4.0393,4.0417,4.0509,4.0514,4.0529,4.0571,4.0596,4.0628,4.0642,4.0636,4.0654,4.0628,4.0679,4.0622,4.069,4.0644,4.066,4.066,4.0664,4.0664,4.06,4.069,4.0852,4.0866,4.0668,4.0666,4.0665,0,4.0504,4.0561,4.0621,4.0632,4.064,4.0669,4.0675,4.0685,4.0704,4.0726,4.0737,4.0767,4.0781,4.0804,4.0786,4.0747,4.0854,4.0798,4.0848,4.0848,4.087,4.0868,4.1033,4.0888,4.0887,4.0887,4.0887,0,4.0638,4.0694,4.0671,4.0708,4.0769,4.0746,4.0807,4.0807,4.0816,4.0851,4.0817,4.085,4.0827,4.0858,4.0845,4.09,4.0908,4.0903,4.0898,4.0904,4.0904,4.0911,4.0902,4.0891,4.089,4.089,4.0889,0,4.0771,4.0759,4.0821,4.0823,4.0825,4.087,4.0871,4.0904,4.0898,4.0942,4.0951,4.094,4.0975,4.096,4.0998,4.0989,4.1058,4.1046,4.1053,4.1048,4.1098,4.1092,4.127,4.129,4.1136,4.1138,4.1139,0,4.0855,4.0897,4.0903,4.0923,4.093,4.0965,4.0983,4.0961,4.0982,4.0998,4.1029,4.1061,4.1084,4.1142,4.1136,4.1164,4.1149,4.121,4.1153,4.1156,4.1145,4.114,4.1143,4.122,4.1222,4.1223,4.1224,0,4.1003,4.0994,4.1022,4.1047,4.1069,4.1089,4.1104,4.1123,4.1102,4.1126,4.116,4.1179,4.1215,4.1246,4.127,4.1274,4.1244,4.1243,4.1255,4.1259,4.1259,4.1255,4.1079,4.1238,4.1237,4.1236,4.1235,4.1234,4.1111,4.1145,4.1153,4.1184,4.1194,4.1209,4.1239,4.1235,4.1263,4.129,4.1276,4.1315,4.1324,4.1353,4.1361,4.139,4.1366,4.1385,4.1389,4.1393,4.1397,4.1258,4.1395,4.1394,4.1394,4.1394,4.1393,0,4.1254,4.1256,4.1286,4.1307,4.1331,4.1302,4.1318,4.1339,4.1374,4.1385,4.1408,4.1446,4.1475,4.1472,4.1498,4.1522,4.1509,4.1529,4.1525,4.1525,4.142,4.1404,4.1538,4.1538,4.1538,4.1538,4.1538,4.1538,4.133,4.1384,4.1375,4.1433,4.1435,4.1472,4.1482,4.1495,4.1503,4.1547,4.157,4.1568,4.1572,4.1598,4.1622,4.1621,4.163,4.1654,4.1647,4.1548,4.1533,4.1519,4.1504,4.1658,4.1658,4.1749,4.175,4.1751]},{"header":{"parameterUnit":"m.s-1","parameterCategory":1,"la1":30.2991,"la2":30.254,"lo1":-89.0895,"lo2":-89.0444,"dy":0.0017,"dx":0.0017,"nx":28,"ny":28,"refTime":"2025-07-11T03:00:00:Z","depth":0,"parameterNumber":3,"parameterNumberName":"V-component_of_WINDS"},"data":[0,0,0,0,0,0,0,0,0,0,0,0,0,0,0,0,0,0,0,0,0,0,0,0,0,0,0,0,0,0,0,0,0,0,0,0,0,0,0,0,0,0,0,0,0,0,0,0,0,0,0,0,0,0,0,0,0,0,3.7907,3.7909,0,3.8029,3.803,3.8031,3.8011,3.8009,3.8007,3.8005,3.8126,3.8131,3.8136,0,0,0,0,0,0,0,0,0,0,0,0,0,3.7653,3.7658,3.7907,3.7909,3.791,3.8028,3.803,3.8032,3.8011,3.8009,3.8006,3.8004,3.8125,3.8131,3.8137,0,0,0,0,0,0,0,0,0,0,0,0,0,3.7768,3.766,3.7907,3.7914,3.7916,3.8028,3.803,3.8032,3.8012,3.8009,3.8005,3.8002,3.8122,3.813,3.8138,3.8249,0,0,3.8162,3.8165,0,0,0,0,0,0,0,0,3.7761,3.7777,3.7912,3.7914,3.7916,3.8001,3.7985,3.8105,3.8013,3.7975,3.8005,3.8001,3.8087,3.8098,3.8127,3.8255,3.826,3.8162,3.8167,3.817,3.8173,0,0,0,0,0,0,0,3.7754,3.7772,3.7955,3.7914,3.7916,3.791,3.7923,3.8008,3.8047,3.7978,3.7977,3.7992,3.8088,3.812,3.813,3.8262,3.8162,3.8169,3.8174,3.8177,3.8484,3.8487,0,0,0,0,0,0,3.7744,3.7765,3.7951,3.7959,3.783,3.7917,3.7932,3.7977,3.8046,3.8054,3.7994,3.7991,3.8108,3.8121,3.8134,3.8267,3.817,3.8178,3.8182,3.848,3.8484,3.8488,0,0,0,0,0,0,3.7739,3.7761,3.7946,3.7862,3.7885,3.7925,3.7976,3.7981,3.8013,3.8059,3.8065,3.802,3.8106,3.8123,3.822,3.8271,3.8181,3.8188,3.8476,3.8481,3.8486,3.8536,0,0,0,0,0,0,3.7731,3.7759,3.7803,3.7863,3.789,3.8032,3.798,3.7986,3.8027,3.8023,3.8085,3.8092,3.8105,3.8209,3.8228,3.828,3.8194,3.8472,3.8478,3.8485,3.853,3.8542,3.8552,0,0,0,0,0,3.7722,3.7812,3.7805,3.7828,3.7946,3.8035,3.805,3.8064,3.8031,3.8075,3.8104,3.809,3.8263,3.8219,3.824,3.8296,3.8469,3.8477,3.8484,3.8524,3.8539,3.8552,0,0,0,0,0,0,3.7757,3.782,3.7813,3.7925,3.7975,3.8031,3.8087,3.808,3.8139,3.8133,3.8147,3.8161,3.8259,3.8287,3.8237,3.8406,3.8361,3.8373,3.8384,3.8399,3.841,3.8401,3.8201,0,0,0,0,0,3.7777,3.7846,3.7897,3.7991,3.8016,3.8047,3.8087,3.8093,3.8145,3.8166,3.8201,3.8251,3.8316,3.8359,3.8422,3.8533,3.8545,3.8582,3.8593,3.8602,3.8613,3.8671,3.8687,3.8514,3.8514,3.8514,0,0,3.7821,3.7864,3.7906,3.7999,3.8038,3.8107,3.8065,3.8141,3.8191,3.8177,3.827,3.8298,3.8354,3.8458,3.8506,3.8485,3.8663,3.8612,3.8619,3.8625,3.8681,3.8697,3.8712,3.8519,3.8518,3.8517,0,0,3.7935,3.7975,3.8056,3.8096,3.8156,3.8176,3.8195,3.8253,3.827,3.8365,3.8354,3.8414,3.8527,3.8567,3.8602,3.8728,3.8716,3.8747,3.8807,3.8864,3.8877,3.8889,3.8933,3.8948,3.8758,3.8758,3.8758,0,3.7981,3.8086,3.8099,3.8175,3.8215,3.8205,3.8286,3.8324,3.8401,3.8428,3.8403,3.8543,3.858,3.8692,3.8722,3.8752,3.8773,3.8741,3.8874,3.8887,3.8898,3.894,3.8956,3.8761,3.8761,3.876,3.876,0,3.8138,3.8211,3.8269,3.8344,3.839,3.8469,3.8492,3.8537,3.8539,3.856,3.8655,3.8699,3.8769,3.8796,3.8799,3.8908,3.8893,3.8871,3.8826,3.8918,3.8957,3.8973,3.8766,3.8765,3.8764,3.8763,0,0,3.8279,3.8358,3.8379,3.8412,3.8476,3.8531,3.8608,3.8677,3.8715,3.8767,3.883,3.8925,3.8904,3.8944,3.895,3.9001,3.9095,3.8972,3.8974,3.8992,3.9216,3.9231,3.9249,3.9088,3.9091,3.9093,3.921,0,3.8398,3.8534,3.8547,3.8669,3.8734,3.8724,3.8791,3.8836,3.8858,3.8915,3.8939,3.9005,3.8974,3.8997,3.9047,3.9073,3.914,3.9065,3.9145,3.9148,3.9131,3.927,3.9287,3.9395,3.9226,3.9228,3.923,0,3.8555,3.8612,3.874,3.8793,3.8821,3.8881,3.8943,3.8999,3.905,3.9062,3.9105,3.9104,3.918,3.9132,3.9237,3.9186,3.9219,3.9236,3.9241,3.9248,3.9194,3.928,3.9431,3.9446,3.9255,3.9253,3.9251,0,3.8643,3.8751,3.8842,3.887,3.8934,3.8976,3.9004,3.9051,3.9091,3.9146,3.9171,3.9234,3.9268,3.9315,3.933,3.9294,3.9433,3.9387,3.9444,3.9444,3.9474,3.9471,3.9631,3.9497,3.9496,3.9496,3.9496,0,3.8774,3.8852,3.8881,3.8937,3.9023,3.9037,3.9121,3.9147,3.9189,3.9248,3.9243,3.9298,3.9315,3.9372,3.9384,3.9467,3.9483,3.9494,3.9496,3.9494,3.9492,3.9515,3.9508,3.95,3.9499,3.9499,3.9498,0,3.8886,3.8909,3.9007,3.9059,3.9073,3.9135,3.9179,3.9231,3.9251,3.9325,3.9343,3.9374,3.9441,3.9461,3.9542,3.9549,3.9647,3.9642,3.963,3.963,3.9685,3.9679,3.9864,3.9888,3.9739,3.974,3.9742,0,3.8968,3.9028,3.9086,3.9125,3.9155,3.9219,3.9259,3.9274,3.9316,3.9376,3.942,3.9486,3.954,3.9647,3.9676,3.9737,3.9733,3.9794,3.9742,3.9737,3.9732,3.9728,3.9733,3.9803,3.9805,3.9806,3.9807,0,3.911,3.9118,3.9177,3.9239,3.9288,3.9337,3.9385,3.9417,3.9438,3.9485,3.9553,3.9595,3.9677,3.9742,3.9803,3.983,3.9822,3.9823,3.9839,3.9837,3.9827,3.9832,3.9655,3.9819,3.9817,3.9817,3.9816,3.9816,3.9209,3.9261,3.9309,3.9374,3.9411,3.9456,3.9507,3.9533,3.959,3.9658,3.9663,3.9736,3.9782,3.9864,3.9894,3.995,3.9933,3.9956,3.9962,3.9967,3.9971,3.9818,3.9962,3.9961,3.9961,3.9961,3.9961,0,3.9349,3.938,3.9439,3.9506,3.9556,3.9544,3.9596,3.9638,3.9704,3.9748,3.98,3.9877,3.994,3.9973,4.0034,4.0073,4.007,4.0089,4.0085,4.0091,3.9985,3.9964,4.0089,4.0089,4.0089,4.0089,4.0089,4.0089,3.9428,3.9515,3.9528,3.9632,3.9661,3.9734,3.9764,3.9804,3.9839,3.9925,3.9977,3.9999,4.0037,4.0101,4.0157,4.0165,4.0187,4.0207,4.0213,4.0112,4.0099,4.0087,4.0067,4.0212,4.0213,4.0315,4.0316,4.0316]}]]